Location: Lansingburgh
(42.7845°N, 73.6696°W)
Time: 14:27:48
(UTC+00:00)

Cosmos 2341 Rocket - Pass Details

Date: 24 January 2020
Orbit: 967 x 1005 km, 82.9° (Epoch: 26 February)

Event Time Altitude Azimuth Distance (km) Brightness Sun altitude
Rises 22:42:04 0° 182° (S) 3,716 7.3 -8.5°
Reaches altitude 10° 22:44:36 10° 181° (S) 2,768 6.6 -9.0°
Maximum altitude 22:50:57 80° 96° (E) 1,019 4.0 -10.1°
Drops below altitude 10° 22:57:19 10° 10° (N) 2,767 6.1 -11.2°
Sets 22:59:50 0° 9° (N) 3,714 6.8 -11.6°
